Flag for Russia Weather past 2 weeks in Sochi, Russia

Now
57 °F

Clear.


Feels Like: 57 °F
Forecast: 49 / 67 °F
Wind: 1 mph from North

Location: Adler

Current Time: Apr 26, 2015 at 10:29:28 PM

Latest Report: Apr 26, 2015 at 10:00 PM


Visibility: N/A

Pressure: 29.95 "Hg

Humidity: 44%

Dew point: 36 °F

Location of SochiLocation

Historic Weather in Sochi — Graph

°F

Sochi temperature yesterday

Maximum temperature yesterday: 55 °F (at 1:00 PM)
Minimum temperature yesterday: 41 °F (at 5:00 AM)
Average temperature yesterday: 50 °F

Past Weeks' High & Low Weather Summary

 TemperatureHumidityPressure
High70 °F (Apr 26, 3:00 PM)94% (Apr 19, 3:30 AM)30.30 "Hg (Apr 19, 3:30 AM)
Low36 °F (Apr 23, 4:30 AM)18% (Apr 26, 3:00 PM)29.77 "Hg (Apr 19, 4:00 PM)
Average50 °F73%30.07 "Hg
* Reported Apr 11 8:00 PM — Apr 26 8:30 PM, Sochi, Weather by CustomWeather, © 2015

Note: Actual official high and low records may vary slightly from our data, if they occured in-between our weather recording intervals... More about our weather records

Advertising

Sochi weather history for previous 24 hours

 ConditionsComfort  
Time TempWeatherWind HumidityBarometerVisibility
8:30 PM
Sun, Apr 26
57 °FClear.No wind41%29.95 "HgN/A
8:00 PM59 °FClear.1 mph42%29.95 "HgN/A
7:30 PM61 °FClear.No wind34%29.95 "HgN/A
7:00 PM64 °FClear.3 mph28%29.95 "HgN/A
6:30 PM64 °FClear.6 mph28%29.95 "HgN/A
6:00 PM64 °FOvercast.6 mph26%29.98 "HgN/A
5:30 PM66 °FOvercast.8 mph21%29.98 "HgN/A
5:00 PM66 °FOvercast.8 mph22%29.98 "HgN/A
4:30 PM66 °FOvercast.10 mph22%29.98 "HgN/A
4:00 PM66 °FOvercast.10 mph24%29.98 "HgN/A
3:30 PM68 °FOvercast.10 mph21%29.98 "HgN/A
3:00 PM70 °FOvercast.10 mph18%30.01 "HgN/A
2:30 PM68 °FOvercast.8 mph23%30.01 "HgN/A
2:00 PM68 °FOvercast.10 mph23%30.04 "HgN/A
1:30 PM68 °FOvercast.8 mph21%30.04 "HgN/A
1:00 PM68 °FOvercast.8 mph26%30.04 "HgN/A
12:30 PM68 °FOvercast.8 mph26%30.04 "HgN/A
12:00 PM68 °FOvercast.8 mph28%30.07 "HgN/A
11:30 AM68 °FPartly sunny.8 mph28%30.07 "HgN/A
11:00 AM66 °FScattered clouds.8 mph32%30.07 "HgN/A
10:30 AM66 °FScattered clouds.8 mph32%30.07 "HgN/A
10:00 AM66 °FScattered clouds.6 mph35%30.07 "HgN/A
9:30 AM66 °FScattered clouds.3 mph35%30.07 "HgN/A
9:00 AM66 °FScattered clouds.No wind40%30.09 "HgN/A
8:30 AM61 °FScattered clouds.3 mph48%30.09 "HgN/A
8:00 AM61 °FScattered clouds.No wind48%30.09 "HgN/A
7:30 AM55 °FScattered clouds.6 mph63%30.09 "HgN/A
7:00 AM52 °FScattered clouds.8 mph67%30.09 "HgN/A
6:30 AM52 °FScattered clouds.1 mph67%30.09 "HgN/A
6:00 AM46 °FPassing clouds.No wind82%30.09 "HgN/A
5:30 AM46 °FPassing clouds.8 mph82%30.09 "HgN/A
5:00 AM46 °FPassing clouds.No wind82%30.09 "HgN/A
4:30 AM46 °FPassing clouds.No wind82%30.09 "HgN/A
4:00 AM46 °FPassing clouds.No wind82%30.09 "HgN/A
3:30 AM46 °FPassing clouds.No wind82%30.12 "HgN/A
3:00 AM45 °FPassing clouds.3 mph87%30.12 "HgN/A
2:30 AM46 °FPassing clouds.No wind87%30.12 "HgN/A
2:00 AM45 °FClear.No wind87%30.12 "HgN/A
1:30 AM46 °FClear.No wind87%30.12 "HgN/A
1:00 AM46 °FClear.No wind87%30.15 "HgN/A
12:00 AM46 °FClear.No wind87%30.15 "HgN/A
11:30 PM
Sat, Apr 25
46 °FClear.8 mph87%30.15 "HgN/A
11:00 PM48 °FClear.No wind82%30.15 "HgN/A
10:30 PM46 °FClear.1 mph87%30.15 "HgN/A
10:00 PM48 °FClear.1 mph82%30.18 "HgN/A
Weather by CustomWeather, © 2015

See weather overviewHow to use our weather pages